Content
SEND FEEDBACK

Daily
Averages
Monthly
Summary
United States of America

ST. LOUIS, MISSOURI


Home > North America > United States > Missouri
Elevation: 163 meters     Latitude: 38 45N     Longitude: 090 22W

WEATHER
 
SELECT A DAY
Number of Records: 196,500;   Date Range: 1/1/95 - 8/30/14
 
SHARE

PRINT THIS DATA

[ ← Previous Day ]
WEATHER ALMANAC - 30 APRIL, 2013
[ Next Day → ]
[ °F ]   °C
Weather ElementAverageHighLow
Temperature24.1 °C30.6 °C (2:54 pm)15.6 °C (5:54 am)
Dewpoint11.8 °C15 °C (1:54 am)8.3 °C (5:54 pm)
Humidity50.3 %84 % (3:54 am)27 % (3:54 pm)
Barometer1010.2 hPa1013.2 hPa (11:54 pm)1008.1 hPa (1:54 am)
Wind Speed12.2 km/h20.4 km/h (3:54 pm)
Wind Gust37 km/h (3:54 pm)
Weather ElementAverage
Visibility16.1 km
Wind DirectionS (177.8 °)

Weather ElementTotal
Precipitation---
Cooling Degree Days4.8 (Base 18.3)
Growing Degree Days13.1 (Base 10)
Averaged from 23 records on 30 April, 2013
WEATHER CONDITIONS BREAKOUT
WIND DIRECTION BREAKOUT
WEATHER BY HOUR - 30 APRIL, 2013
[ °F ]   °C
Local TimeTemperatureDewpointHumidityBarometerVisibilityWind DirectionWind SpeedGust SpeedPrecipitationEventsConditions
1:54 AM20 °C15 °C73 %1008.1 hPa16.1 kmSouth (190°)13 km/hClear
2:54 AM18.9 °C15 °C78 %1008.1 hPa16.1 kmSSW (200°)9.3 km/hClear
3:54 AM16.7 °C13.9 °C84 %1008.5 hPa16.1 kmCalmClear
4:54 AM16.1 °C13.3 °C83 %1009.1 hPa16.1 kmSouth (190°)7.4 km/hClear
5:54 AM15.6 °C12.8 °C83 %1009.5 hPa16.1 kmCalmClear
6:54 AM17.8 °C13.3 °C75 %1010.2 hPa16.1 kmSW (220°)7.4 km/hScattered Clouds
7:54 AM20 °C13.9 °C68 %1010.8 hPa16.1 kmSW (220°)7.4 km/hMostly Cloudy
8:54 AM22.8 °C13.9 °C57 %1010.8 hPa16.1 kmSW (230°)14.8 km/hScattered Clouds
9:54 AM24.4 °C13.9 °C52 %1010.8 hPa16.1 kmSW (230°)16.7 km/hScattered Clouds
10:54 AM26.7 °C13.3 °C43 %1010.8 hPa16.1 kmWSW (240°)16.7 km/hClear
11:54 AM28.3 °C12.8 °C38 %1010.2 hPa16.1 kmWSW (250°)11.1 km/hScattered Clouds
12:54 PM28.9 °C11.1 °C33 %1009.8 hPa16.1 kmSSW (200°)11.1 km/h31.5 km/hScattered Clouds
1:54 PM30 °C10.6 °C30 %1009.5 hPa16.1 kmSSW (200°)16.7 km/h29.6 km/hScattered Clouds
2:54 PM30.6 °C11.1 °C30 %1009.1 hPa16.1 kmSW (220°)14.8 km/hPartly Cloudy
3:54 PM30 °C8.9 °C27 %1008.8 hPa16.1 kmSouth (180°)20.4 km/h37 km/hClear
4:54 PM30 °C8.9 °C27 %1009.1 hPa16.1 kmSouth (170°)18.5 km/h29.6 km/hScattered Clouds
5:54 PM28.9 °C8.3 °C27 %1009.5 hPa16.1 kmSouth (180°)18.5 km/h33.3 km/hScattered Clouds
6:54 PM28.3 °C10 °C32 %1009.5 hPa16.1 kmSouth (170°)11.1 km/h25.9 km/hScattered Clouds
7:54 PM26.7 °C9.4 °C34 %1010.5 hPa16.1 kmSSE (160°)14.8 km/hPartly Cloudy
8:54 PM25 °C10 °C39 %1011.5 hPa16.1 kmSSE (150°)11.1 km/hPartly Cloudy
9:54 PM23.9 °C10.6 °C43 %1012.2 hPa16.1 kmSSE (160°)13 km/hClear
10:54 PM22.8 °C11.1 °C48 %1012.9 hPa16.1 kmSouth (170°)18.5 km/hClear
11:54 PM21.7 °C11.7 °C53 %1013.2 hPa16.1 kmSSE (160°)9.3 km/hClear
Hourly data recorded from KSUS, located 0 kilometers away from St. Louis, Missouri







STORIES FROM OUR PARTNERS